Starlink 11186

operational
NORAD ID: 60070 Int'l Des: 2024-113 Owner: SPXS Country: US Constellation: starlink
LEOCIRCULAR

About Starlink 11186

Description loading...

Live Position

Loading 3D Globe...

Upcoming Passes

Altitude History

Altitude vs Time

uPlot chart will show altitude changes over time

Two-Line Element Set

1 60070U 24113M 25315.30142721 -.00000604 00000-0 -13003-6 0 9995
2 60070 53.1580 55.0670 0001112 116.9944 243.1188 15.69716043 81377
Epoch: Nov 11, 2025 • Age: 7 hours

Current Status

Altitude 368.4 km
Velocity 7.69 km/s
Sub-Earth Point -27.07°S, 119.22°E
Launch Date Jun 19, 2024
Age 1.3 years
Type internet

Technical Details

Classification Payload
Mass 960.00 kg
Dry Mass 910.00 kg
Total Mass 960.00 kg
Length 0.30 m
Diameter 4.10 m
Span 29.00 m
Shape Box + pan
Manufacturer SPXS
Bus Type Starlink V2MD
Phase Status In Orbit
Owner/State SPXS/US

Large Constellations

Loading constellations...